Effective Sunday, March 17, 2024, the National Weather Service National Data Buoy Center will discontinue its Dial-A-Buoy Interactive Voice Response system. For more information, see Service Change Notice 24-06 (PDF).

Station LCLL1 - 8767816 - Lake Charles, LA Image indicating link to RSS feed of recent meteorological observations for station LCLL1


Conditions at LCLL1 as of
(3:48 pm CST)
2148 GMT on 03/03/2024:
     

Click on the graph icon in the table below to see a time series plot of the last five days of that observation.

5-day plot - Atmospheric Pressure Atmospheric Pressure (PRES):29.93 in
5-day plot - Air Temperature Air Temperature (ATMP): 75.4 °F
5-day plot - Water Temperature Water Temperature (WTMP): 69.8 °F
NOS Water Level Observation Network Water Level
Previous observations
TIME
(CST)
5-day plot - Wind Direction
WDIR
 
5-day plot - Wind Speed
WSPD
kts
5-day plot - Wind Gust
GST
kts
5-day plot - Wave Height
WVHT
ft
5-day plot - Dominant Wave Period
DPD
sec
5-day plot - Average Wave Period
APD
sec
5-day plot - Mean Wave Direction
MWD
 
5-day plot - Atmospheric Pressure
PRES
in
5-day plot - Pressure Tendency
PTDY
in
5-day plot - Air Temperature
ATMP
°F
5-day plot - Water Temperature
WTMP
°F
5-day plot - Dew Point
DEWP
°F
5-day plot - Salinity
SAL
psu
5-day plot - Visibility
VIS
nmi
5-day plot - Tide (above MLLW)
TIDE
ft
2024-03-03 03:42 pm-------29.93- 75.6 69.8----
2024-03-03 03:36 pm-------29.94- 75.6 69.8----
2024-03-03 03:30 pm-------29.94-- 69.4----
2024-03-03 03:24 pm-------29.94-- 69.4----
2024-03-03 03:18 pm-------29.94- 75.6 69.4----
2024-03-03 03:12 pm-------29.94- 75.4 69.4----
2024-03-03 03:06 pm-------29.94- 75.4 69.4----
2024-03-03 03:00 pm-------29.93-0.07- 69.4----
2024-03-03 02:54 pm-------29.93-- 69.4----
2024-03-03 02:48 pm-------29.93- 75.6 69.3----
2024-03-03 02:42 pm-------29.94- 75.0 69.3----
2024-03-03 02:36 pm-------29.94- 74.8 69.4----
2024-03-03 02:30 pm--------- 74.7 69.4----
2024-03-03 02:24 pm--------- 74.3 69.4----
2024-03-03 02:18 pm-------29.95- 73.8 69.4----
2024-03-03 02:12 pm-------29.95- 74.3 69.6----
2024-03-03 02:06 pm-------29.96- 74.1 69.6----
2024-03-03 02:00 pm-------29.96-0.07 73.8-----
2024-03-03 01:54 pm-------29.96- 73.6-----
2024-03-03 01:48 pm-------29.96- 74.3 69.6----
2024-03-03 01:42 pm-------29.96- 74.5 69.6----
2024-03-03 01:36 pm-------29.97- 74.1 69.6----
2024-03-03 01:30 pm-------29.97-- 69.6----
2024-03-03 01:24 pm-------29.97-- 69.6----
2024-03-03 01:18 pm-------29.98-------
2024-03-03 01:12 pm-------29.98-------
2024-03-03 01:06 pm-------29.98-------
2024-03-03 01:00 pm-------29.98-0.05- 69.6----
2024-03-03 12:54 pm-------29.99-- 69.6----
2024-03-03 12:48 pm--------- 72.7-----
2024-03-03 12:42 pm--------- 73.0-----
2024-03-03 12:36 pm--------- 72.9-----
2024-03-03 12:30 pm-------30.00- 72.7 69.6----
2024-03-03 12:24 pm-------30.00- 72.9 69.6----
2024-03-03 12:18 pm-------30.00- 73.0 69.6----
2024-03-03 12:12 pm-------30.00- 72.3 69.6----
2024-03-03 12:06 pm-------30.00- 71.6 69.6----
2024-03-03 12:00 pm-------30.01-0.02 71.4 69.6----
2024-03-03 11:54 am-------30.01- 71.4 69.6----
2024-03-03 11:48 am-------30.01- 70.7 69.3----
2024-03-03 11:42 am-------30.01- 70.5 69.3----
2024-03-03 11:36 am-------30.02- 70.9 69.3----
2024-03-03 11:30 am-------30.01- 70.7 69.3----
2024-03-03 11:24 am-------30.02- 70.0 69.3----
2024-03-03 11:18 am-------30.02-- 69.3----
2024-03-03 11:12 am-------30.02-- 69.3----
2024-03-03 11:06 am-------30.02-- 69.3----
2024-03-03 11:00 am-------30.03-- 69.3----
2024-03-03 10:54 am-------30.03-- 69.3----
2024-03-03 10:48 am-------30.03- 68.0 69.4----
2024-03-03 10:42 am-------30.03- 67.8 69.4----
2024-03-03 10:36 am-------30.03- 67.6 69.4----
2024-03-03 10:30 am-------30.03- 67.5 69.4----
2024-03-03 10:24 am-------30.03- 67.3 69.6----
2024-03-03 10:18 am-------30.03- 67.1 69.6----
2024-03-03 10:12 am-------30.03- 66.7 69.6----
2024-03-03 10:06 am-------30.03- 66.6 69.6----
2024-03-03 10:00 am-------30.03+0.03 66.2 69.6----
2024-03-03 09:54 am-------30.03- 66.0 69.6----
2024-03-03 09:48 am-------30.03- 65.8 69.6----
2024-03-03 09:42 am-------30.03- 65.7 69.6----
2024-03-03 09:36 am-------30.03- 65.5 69.6----
2024-03-03 09:30 am-------30.03- 65.5 69.6----
2024-03-03 09:24 am-------30.03- 65.3 69.6----
2024-03-03 09:18 am-------30.03- 65.1 69.6----
2024-03-03 09:12 am-------30.03- 65.1 69.6----
2024-03-03 09:06 am-------30.03- 64.9 69.6----
2024-03-03 09:00 am-------30.03+0.03 65.1 69.6----
2024-03-03 08:54 am-------30.03- 64.9 69.6----
2024-03-03 08:48 am-------30.03- 64.8 69.6----
2024-03-03 08:42 am-------30.02- 64.8 69.6----
2024-03-03 08:36 am-------30.02- 64.6 69.4----
2024-03-03 08:30 am-------30.02-------
2024-03-03 08:24 am-------30.02-------
2024-03-03 08:18 am-------30.02-- 69.4----
2024-03-03 08:12 am-------30.02-- 69.4----
2024-03-03 08:06 am-------30.01-- 69.4----
2024-03-03 08:00 am--------- 63.9 69.4----
2024-03-03 07:54 am--------- 63.7 69.4----
2024-03-03 07:48 am-------30.01-- 69.4----
2024-03-03 07:42 am-------30.01-- 69.4----
2024-03-03 07:36 am-------30.01-- 69.4----
2024-03-03 07:30 am-------30.01-- 69.4----
2024-03-03 07:24 am-------30.01-- 69.4----
2024-03-03 07:18 am-------30.01- 63.3 69.4----
2024-03-03 07:12 am-------30.00- 63.3 69.4----
2024-03-03 07:06 am-------30.01- 63.1 69.4----
2024-03-03 07:00 am-------30.01+0.01 63.0-----
2024-03-03 06:54 am-------30.01- 63.0-----
2024-03-03 06:48 am-------30.01-- 69.6----
2024-03-03 06:42 am-------30.00-- 69.6----
2024-03-03 06:36 am-------30.01-- 69.6----
2024-03-03 06:30 am---------- 69.6----
2024-03-03 06:24 am---------- 69.8----
2024-03-03 06:18 am-------30.00- 62.8 69.8----
2024-03-03 06:12 am-------30.00- 63.0 69.6----
2024-03-03 06:06 am-------30.00- 63.1 69.6----
2024-03-03 06:00 am-------30.00+0.00 63.1 69.6----
2024-03-03 05:54 am-------30.00- 63.1 69.6----
2024-03-03 05:48 am-------30.00- 63.1 69.6----
2024-03-03 05:42 am-------30.00- 63.1 69.6----
2024-03-03 05:36 am-------30.00- 63.1 69.6----
2024-03-03 05:30 am-------30.00- 63.1 69.4----
2024-03-03 05:24 am-------30.00- 63.0 69.4----
2024-03-03 05:18 am-------30.00- 63.0 69.4----
2024-03-03 05:12 am-------29.99- 63.0 69.3----
2024-03-03 05:06 am-------29.99- 62.8 69.3----
2024-03-03 05:00 am-------29.99-0.01- 69.3----
2024-03-03 04:54 am-------29.99-- 69.3----
2024-03-03 04:48 am-------29.99- 62.6 69.3----
2024-03-03 04:42 am-------29.99- 62.4 69.3----
2024-03-03 04:36 am-------29.99- 62.4 69.3----
2024-03-03 04:30 am-------29.99- 62.2 69.3----
2024-03-03 04:24 am-------29.99- 62.4 69.3----
2024-03-03 04:18 am-------29.99- 62.2 69.4----
2024-03-03 04:12 am-------29.99- 62.2 69.4----
2024-03-03 04:06 am-------29.99- 62.2 69.3----
2024-03-03 04:00 am-------29.99-0.01 62.4 69.3----
2024-03-03 03:54 am-------29.99- 62.2 69.4----
2024-03-03 03:48 am-------29.99- 62.2 69.3----
2024-03-03 03:42 am-------29.99- 62.2 69.4----
2024-03-03 03:36 am-------29.99- 62.2 69.4----
2024-03-03 03:30 am-------29.99- 62.2 69.4----
2024-03-03 03:24 am-------29.99- 62.2 69.4----
2024-03-03 03:18 am-------29.99- 62.4 69.4----
2024-03-03 03:12 am-------29.99- 62.4 69.4----
2024-03-03 03:06 am-------30.00- 62.4 69.4----
2024-03-03 03:00 am-------30.00-0.02 62.4 69.4----
2024-03-03 02:54 am-------30.00- 62.4 69.4----
2024-03-03 02:48 am-------30.00- 62.4 69.6----
2024-03-03 02:42 am-------30.00- 62.4 69.6----
2024-03-03 02:36 am-------30.00- 62.4 69.6----
2024-03-03 02:30 am-------30.00- 62.4 69.4----
2024-03-03 02:24 am-------30.00- 62.4 69.4----
2024-03-03 02:18 am-------30.00- 62.4 69.4----
2024-03-03 02:12 am-------30.00- 62.4 69.4----
2024-03-03 02:06 am-------30.00- 62.4 69.6----
2024-03-03 02:00 am-------30.00-0.02 62.4 69.6----
2024-03-03 01:54 am-------30.00- 62.4 69.6----
2024-03-03 01:48 am-------30.01- 62.4 69.6----
2024-03-03 01:42 am-------30.00- 62.4 69.6----
2024-03-03 01:36 am-------30.00- 62.4 69.6----
2024-03-03 01:30 am-------30.01- 62.2 69.6----
2024-03-03 01:24 am-------30.01- 62.2 69.6----
2024-03-03 01:18 am-------30.01- 62.2 69.6----
2024-03-03 01:12 am-------30.01- 62.2 69.6----
2024-03-03 01:06 am-------30.01- 62.2 69.6----
2024-03-03 01:00 am-------30.01-0.02 62.2 69.6----
2024-03-03 12:54 am-------30.01- 62.1 69.6----
2024-03-03 12:48 am-------30.01- 62.1 69.6----
2024-03-03 12:42 am-------30.01- 61.9 69.6----
2024-03-03 12:36 am-------30.01- 61.9 69.6----
2024-03-03 12:30 am-------30.01- 61.9 69.6----
2024-03-03 12:24 am-------30.01- 61.9 69.6----
2024-03-03 12:18 am-------30.01- 61.9 69.6----
2024-03-03 12:12 am-------30.01- 61.9 69.6----
2024-03-03 12:06 am-------30.01- 61.9 69.6----
2024-03-03 12:00 am-------30.01-0.02 61.9 69.6----
2024-03-02 11:54 pm-------30.02- 61.7 69.6----
2024-03-02 11:48 pm-------30.02- 61.7 69.6----
2024-03-02 11:42 pm-------30.03- 61.9 69.8----
2024-03-02 11:36 pm-------30.02- 61.9 69.8----
2024-03-02 11:30 pm-------30.02- 61.9 69.8----
2024-03-02 11:24 pm-------30.02- 61.9 69.8----
2024-03-02 11:18 pm-------30.02- 62.1 69.8----
2024-03-02 11:12 pm-------30.02- 62.1 69.8----
2024-03-02 11:06 pm-------30.02- 62.1 69.4----
2024-03-02 11:00 pm-------30.02+0.00 62.2 69.3----
2024-03-02 10:54 pm-------30.02- 62.2 69.3----
2024-03-02 10:48 pm-------30.02- 62.2 69.3----
2024-03-02 10:42 pm-------30.03- 62.2 69.3----
2024-03-02 10:36 pm-------30.03- 62.1 69.3----
2024-03-02 10:30 pm-------30.03- 62.1 69.3----
2024-03-02 10:24 pm-------30.03- 61.9 69.3----
2024-03-02 10:18 pm-------30.03- 62.1 69.4----
2024-03-02 10:12 pm-------30.03- 62.1 69.4----
2024-03-02 10:06 pm-------30.03- 61.9 69.4----
2024-03-02 10:00 pm-------30.03+0.02 61.9 69.4----
2024-03-02 09:54 pm-------30.03- 61.9 69.4----
2024-03-02 09:48 pm-------30.03- 61.9 69.4----
2024-03-02 09:42 pm-------30.03- 62.1 69.3----
2024-03-02 09:36 pm-------30.03- 62.1 69.4----
2024-03-02 09:30 pm-------30.03- 62.2 69.3----
2024-03-02 09:24 pm-------30.03- 62.2 69.4----
2024-03-02 09:18 pm-------30.03- 62.2 69.4----
2024-03-02 09:12 pm-------30.03- 62.2 69.4----
2024-03-02 09:06 pm-------30.03- 62.2 69.4----
2024-03-02 09:00 pm-------30.03+0.02 62.4 69.3----
2024-03-02 08:54 pm-------30.03- 62.2 69.3----
2024-03-02 08:48 pm-------30.03- 62.2 69.3----
2024-03-02 08:42 pm-------30.03- 62.4 69.4----
2024-03-02 08:36 pm-------30.03- 62.8 69.4----
2024-03-02 08:30 pm-------30.03- 63.0 69.4----
2024-03-02 08:24 pm-------30.03- 63.1 69.4----
2024-03-02 08:18 pm-------30.03- 63.3 69.4----
2024-03-02 08:12 pm-------30.02- 63.5 69.4----
2024-03-02 08:06 pm-------30.02- 63.7 69.4----
2024-03-02 08:00 pm-------30.02+0.01 64.0 69.4----
2024-03-02 07:54 pm-------30.02- 64.4 69.4----
2024-03-02 07:48 pm-------30.02- 64.6 69.4----
2024-03-02 07:42 pm-------30.02- 64.9 69.4----
2024-03-02 07:36 pm-------30.02- 65.3 69.6----
2024-03-02 07:30 pm-------30.02- 65.5 69.6----
2024-03-02 07:24 pm-------30.02- 65.8 69.6----
2024-03-02 07:18 pm-------30.02- 66.4 69.6----
2024-03-02 07:12 pm-------30.01- 66.7 69.6----
2024-03-02 07:06 pm-------30.01- 67.1 69.6----
2024-03-02 07:00 pm-------30.01+0.00 67.5 69.6----
2024-03-02 06:54 pm-------30.01- 67.8 69.6----
2024-03-02 06:48 pm-------30.01- 68.2 69.4----
2024-03-02 06:42 pm-------30.01- 68.4 69.4----
2024-03-02 06:36 pm-------30.01- 68.5 69.6----
2024-03-02 06:30 pm-------30.01- 68.7 69.6----
2024-03-02 06:24 pm-------30.01- 69.1 69.6----
2024-03-02 06:18 pm-------30.01- 69.4 69.4----
2024-03-02 06:12 pm-------30.01- 69.8 70.0----
2024-03-02 06:06 pm-------30.01- 70.3 69.6----
2024-03-02 06:00 pm-------30.01+0.00 70.7 69.8----
2024-03-02 05:54 pm-------30.01- 70.9 69.6----
2024-03-02 05:48 pm-------30.01-- 69.4----
2024-03-02 05:42 pm-------30.01-- 69.6----
2024-03-02 05:36 pm-------30.01-- 69.1----
2024-03-02 05:30 pm-------30.01- 73.6 69.1----
2024-03-02 05:24 pm-------30.01- 74.8 69.1----
2024-03-02 05:18 pm-------30.00-- 69.3----
2024-03-02 05:12 pm-------30.01-- 69.1----
2024-03-02 05:06 pm-------30.01-- 69.3----
2024-03-02 05:00 pm-------30.01- 75.6 69.3----
2024-03-02 04:54 pm-------30.01- 75.0 69.3----
2024-03-02 04:48 pm-------30.01- 74.7 69.3----
2024-03-02 04:42 pm-------30.01- 74.5 69.4----
2024-03-02 04:36 pm-------30.01- 74.5 69.3----
2024-03-02 04:30 pm-------30.01-- 69.3----
2024-03-02 04:24 pm-------30.01-- 69.3----
2024-03-02 04:18 pm-------30.01-- 69.4----
2024-03-02 04:12 pm-------30.01-- 69.4----
2024-03-02 04:06 pm-------30.01-- 69.4----
2024-03-02 04:00 pm-------30.01-0.05 75.4 69.3----
2024-03-02 03:54 pm-------30.01- 75.4 69.3----